Location: Chin
(49.7667°N, 112.4500°W)
Time: 12:11:38
(UTC+00:00)

Envisat - Pass Details

Date: 27 November 2021
Orbit: 764 x 766 km, 98.2° (Epoch: 25 January)

Event Time Altitude Azimuth Distance (km) Brightness Sun altitude
Rises 11:32:30 0° 24° (NNE) 3,246 6.6 -32.9°
Reaches altitude 10° 11:35:17 10° 38° (NE) 2,315 5.9 -32.4°
Maximum altitude 11:39:21 24° 91° (E) 1,568 5.2 -31.8°
Drops below altitude 10° 11:43:22 10° 144° (SE) 2,300 5.8 -31.1°
Sets 11:46:06 0° 159° (SSE) 3,220 6.4 -30.7°
